This is the latest recevied weather packets stored in our database for station/object N5ATR. If no packets are shown the sender has not sent any weather packets the latest 10 day(s).
| Time | Temp. | Humidity | Pressure | Rain* | Wind** | Luminosity | Snow |
|---|---|---|---|---|---|---|---|
| 1777687761 | 3.33° C | 94% | 1020.2 hPa | 0 mm | - | 0 W/m² | - |
| 1777687460 | 3.33° C | 93% | 1020.3 hPa | 0 mm | - | 0 W/m² | - |
| 1777687155 | 3.33° C | 93% | 1020.6 hPa | 0 mm | - | 0 W/m² | - |
| 1777686853 | 3.33° C | 92% | 1019.9 hPa | 0 mm | - | 0 W/m² | - |
| 1777686550 | 3.33° C | 93% | 1019.8 hPa | 0 mm | - | 1 W/m² | - |
| 1777686247 | 3.33° C | 93% | 1020.1 hPa | 0 mm | - | 1 W/m² | - |
| 1777685943 | 3.33° C | 93% | 1019.8 hPa | 0 mm | - | 1 W/m² | - |
| 1777685638 | 3.33° C | 93% | 1019.4 hPa | 0 mm | - | 2 W/m² | - |
| 1777685335 | 3.33° C | 93% | 1019.3 hPa | 0 mm | - | 3 W/m² | - |
| 1777685033 | 3.33° C | 93% | 1019.2 hPa | 0 mm | - | 5 W/m² | - |
| 1777684730 | 3.33° C | 92% | 1019.1 hPa | 0 mm | - | 5 W/m² | - |
| 1777684426 | 3.33° C | 92% | 1019.2 hPa | 0 mm | - | 6 W/m² | - |
| 1777684123 | 3.33° C | 92% | 1018.8 hPa | 0 mm | - | 6 W/m² | - |
| 1777683820 | 3.33° C | 92% | 1018.8 hPa | 0 mm | - | 5 W/m² | - |
| 1777683517 | 3.33° C | 92% | 1018.7 hPa | 0 mm | - | 5 W/m² | - |
| 1777683215 | 3.33° C | 92% | 1018.6 hPa | 0 mm | - | 8 W/m² | - |
| 1777682912 | 3.33° C | 92% | 1018.7 hPa | 0 mm | - | 12 W/m² | - |
| 1777682608 | 3.33° C | 92% | 1018.7 hPa | 0 mm | - | 19 W/m² | - |
| 1777682306 | 3.89° C | 93% | 1018.6 hPa | 0 mm | - | 26 W/m² | - |
| 1777682003 | 3.89° C | 93% | 1018.7 hPa | 0 mm | - | 27 W/m² | - |
| 1777681699 | 3.89° C | 92% | 1018.7 hPa | 0 mm | - | 30 W/m² | - |
| 1777681397 | 3.89° C | 92% | 1018.7 hPa | 0 mm | - | 29 W/m² | - |
| 1777681094 | 4.44° C | 90% | 1018.6 hPa | 0 mm | - | 36 W/m² | - |
| 1777680792 | 4.44° C | 89% | 1018.6 hPa | 0 mm | - | 24 W/m² | - |
| 1777680489 | 4.44° C | 89% | 1018.6 hPa | 0 mm | - | 21 W/m² | - |
* Rain latest hour (hover to see other rain measurements)
** Current wind speed in m/s (hover to see current wind gust speed)